Location: Newark
(43.9494°N, 6.8108°E)
Time: 07:35:28
(UTC+00:00)

A-11 Canister half - Pass Details

Date: 28 October 2019
Orbit: 1514 x 1685 km, 47.2° (Epoch: 19 November)

Event Time Altitude Azimuth Distance (km) Brightness Sun altitude
Rises 07:00:07 0° 293° (WNW) 4,802 10.9 8.6°
Reaches altitude 10° 07:03:55 10° 281° (W) 3,786 10.5 9.2°
Maximum altitude 07:11:12 25° 231° (SW) 2,711 10.2 10.3°
Drops below altitude 10° 07:18:20 10° 180° (S) 3,686 11.5 11.5°
Sets 07:22:00 0° 168° (SSE) 4,651 12.2 12.0°
